Regional Weather Roundup
Issued by NWS Lake Charles, LA

Home | Current Version | Previous Version | Text Only | Print | Product List | Glossary On
Versions: 1 2 3 4 5 6 7 8 9 10 11 12 13 14 15 16 17 18 19 20 21 22 23 24 25 26 27
000
ASUS44 KLCH 310510
RWRLCH
REGIONAL WEATHER ROUNDUP
NATIONAL WEATHER SERVICE LAKE CHARLES LA
1200 AM CDT SAT JUL 31 2021

Note: "fair" indicates few or no clouds below 12,000 feet with no
significant weather and/or obstructions to visibility.


ACROSS SOUTHEAST TEXAS

CITY           SKY/WX    TMP DP  RH WIND       PRES   REMARKS
BEAUMONT       CLEAR     78  78 100 MISG      30.04R
BEAUMONT CITY  FAIR      80  78  94 CALM      30.05R
ORANGE         CLEAR     81  77  86 CALM      30.06S
JASPER         CLEAR     79  77  94 CALM      30.04S
$$

ACROSS CENTRAL LOUISIANA

CITY           SKY/WX    TMP DP  RH WIND       PRES   REMARKS
LEESVILLE      CLEAR     82  78  90 SW3       30.04S
FULLERTON      FAIR      80  77  90 CALM      30.02S
ALEXANDRIA INT CLEAR     83  77  82 CALM      30.02S
ESLER FIELD    CLEAR     80  78  94 CALM      30.03S FOG
DERIDDER       NOT AVBL
OAKDALE        CLEAR     79  75  89 CALM      30.04S
OPELOUSAS      FAIR      81  77  89 CALM      30.05R
$$

ACROSS SOUTHWEST AND SOUTH CENTRAL LOUISIANA

CITY           SKY/WX    TMP DP  RH WIND       PRES   REMARKS
DEQUINCY         N/A     80  77  90 CALM      30.05S
SULPHUR        CLEAR     82  78  88 W3        30.05S
LAKE CHARLES   CLEAR     82  79  90 SW3       30.04F
CHENNAULT INT  CLEAR     85  76  75 SW5       30.04S
JENNINGS       FAIR      81  81 100 CALM      30.05S
LAFAYETTE      CLEAR     82  75  79 SW3       30.04F
NEW IBERIA     CLEAR     80  78  94 CALM      30.05S
ABBEVILLE      FAIR      79  74  85 CALM      30.05S
PATTERSON      CLEAR     79  79 100 CALM      30.05S
SALT POINT       N/A     86  78  77 VRB3      30.03S
$$

SELECTED SITES ACROSS THE REGION

CITY           SKY/WX    TMP DP  RH WIND       PRES   REMARKS
HOUSTON BUSH   MOCLDY    80  74  81 S3        30.04F
HOUSTON HOBBY  MOCLDY    82  75  79 S3        30.04S
GALVESTON      CLEAR     86  76  71 S9        30.05S
COLLEGE STAT   PTCLDY    81  73  76 S5        30.05R
CONROE         PTCLDY    78  74  87 CALM      30.06S
HUNTSVILLE     PTCLDY    83  72  69 S6        30.05S
LUFKIN         CLEAR     82  78  88 S3        30.04S
SHREVEPORT     CLEAR     84  76  76 CALM      30.03S
MONROE         CLEAR     81  78  91 CALM      30.04R
NATCHEZ MS     PTCLDY    82  80  94 CALM      30.06S
BATON ROUGE    PTCLDY    81  77  88 MISG      30.04R
N.O. INTL ARPT PTCLDY    84  79  85 CALM      30.04S
SLIDELL        CLEAR     83  78  85 CALM      30.03S
$$

MARINE REPORTS

STATION/POSITION TIME  SKY/WX   TEMP    WIND        PRES    VSBY
                                AIR SEA DIR/SP/G
                 (UTC)          (F)     (DEG/KT/KT) (MB)    (MI)
BUOY 30 S HIGH I 0450            85 88  210/ 10/ 12 1017.0R
WVE H/P(F/S)=  1/ 6

SEA RIM ST PARK  NOT AVBL
PORT ARTHUR      0424            83 87  200/  4/  5 1017.3
TEXAS POINT      0424            85 89  220/  7/ 10 1016.2
CALCASIEU PASS   0424            86 89  250/  6/  8 1015.6
LK CHARLES BEACH 0424            85 87              1017.3
MARSH ISLAND     NOT AVBL
FRESH WATER LOCK 0430                   240/  3/  4   N/A
AMERADA PASS     0424            85 87  230/  1/  3 1017.6
$$



USA.gov is the U.S. government's official web portal to all federal, state and local government web resources and services.